| time (UTC) | temp F | wind direction | speed knots | gust knots | rain 1hr in | rain 24hr in | rain mn in | humidity % | barometer mb |
| 20260906212318 | 94 | 238 | 4.3 | 11.3 | 0.00 | 0.00 | 0.00 | 29 | 1013.6 |
| 20260906211817 | 95 | 169 | 6.1 | 8.7 | 0.00 | 0.00 | 0.00 | 29 | 1013.6 |
| 20260906211313 | 93 | 159 | 7.8 | 17.4 | 0.00 | 0.00 | 0.00 | 30 | 1013.6 |
| 20260906210812 | 95 | 136 | 9.6 | 14.8 | 0.00 | 0.00 | 0.00 | 29 | 1013.6 |
| 20260906210307 | 95 | 135 | 7.0 | 10.4 | 0.00 | 0.00 | 0.00 | 29 | 1013.8 |
| 20260906205802 | 95 | 165 | 7.0 | 12.2 | 0.00 | 0.00 | 0.00 | 30 | 1013.8 |
| 20260906205259 | 95 | 155 | 7.0 | 12.2 | 0.00 | 0.00 | 0.00 | 30 | 1013.9 |
| 20260906204754 | 94 | 176 | 4.3 | 8.7 | 0.00 | 0.00 | 0.00 | 31 | 1013.9 |
| 20260906204253 | 93 | 212 | 4.3 | 10.4 | 0.00 | 0.00 | 0.00 | 32 | 1013.9 |
| 20260906203752 | 91 | 134 | 8.7 | 9.6 | 0.00 | 0.00 | 0.00 | 33 | 1014.1 |
| 20260906203248 | 91 | 119 | 8.7 | 15.6 | 0.00 | 0.00 | 0.00 | 33 | 1013.9 |
| 20260906202744 | 92 | 132 | 13.0 | 18.2 | 0.00 | 0.00 | 0.00 | 32 | 1013.9 |
| 20260906202238 | 94 | 146 | 7.8 | 20.0 | 0.00 | 0.00 | 0.00 | 32 | 1014.1 |
| 20260906201733 | 95 | 196 | 4.3 | 7.8 | 0.00 | 0.00 | 0.00 | 31 | 1014.0 |
| 20260906201232 | 93 | 190 | 7.8 | 11.3 | 0.00 | 0.00 | 0.00 | 32 | 1013.9 |
| 20260906200728 | 93 | 135 | 5.2 | 7.8 | 0.00 | 0.00 | 0.00 | 32 | 1014.0 |
| 20260906200224 | 93 | 127 | 15.6 | 15.6 | 0.00 | 0.00 | 0.00 | 31 | 1014.3 |
| 20260906195720 | 93 | 128 | 9.6 | 11.3 | 0.00 | 0.00 | 0.00 | 31 | 1014.2 |
| 20260906195216 | 94 | 205 | 3.5 | 7.8 | 0.00 | 0.00 | 0.00 | 31 | 1014.5 |
| 20260906194711 | 94 | 161 | 3.5 | 8.7 | 0.00 | 0.00 | 0.00 | 32 | 1014.5 |
| 20260906194207 | 93 | 168 | 4.3 | 5.2 | 0.00 | 0.00 | 0.00 | 33 | 1014.7 |
| 20260906193702 | 93 | 165 | 3.5 | 5.2 | 0.00 | 0.00 | 0.00 | 32 | 1014.7 |
| 20260906193156 | 93 | 158 | 5.2 | 11.3 | 0.00 | 0.00 | 0.00 | 32 | 1014.6 |
| 20260906192653 | 91 | 130 | 14.8 | 16.5 | 0.00 | 0.00 | 0.00 | 33 | 1014.7 |
| 20260906192152 | 92 | 120 | 6.1 | 11.3 | 0.00 | 0.00 | 0.00 | 32 | 1014.8 |
| 20260906191647 | 93 | 249 | 4.3 | 7.8 | 0.00 | 0.00 | 0.00 | 32 | 1014.8 |
| 20260906191146 | 94 | 198 | 7.8 | 11.3 | 0.00 | 0.00 | 0.00 | 31 | 1014.9 |
| 20260906190640 | 94 | 182 | 7.0 | 9.6 | 0.00 | 0.00 | 0.00 | 32 | 1014.8 |
| 20260906190135 | 93 | 205 | 7.8 | 9.6 | 0.00 | 0.00 | 0.00 | 33 | 1014.8 |
| 20260906185634 | 93 | 213 | 6.1 | 11.3 | 0.00 | 0.00 | 0.00 | 33 | 1015.1 |
| 20260906185134 | 92 | 223 | 3.5 | 8.7 | 0.00 | 0.00 | 0.00 | 34 | 1015.1 |
| 20260906184628 | 93 | 192 | 5.2 | 13.0 | 0.00 | 0.00 | 0.00 | 33 | 1015.6 |
| 20260906184124 | 93 | 134 | 9.6 | 12.2 | 0.00 | 0.00 | 0.00 | 33 | 1015.1 |
| 20260906183620 | 93 | 183 | 1.7 | 7.0 | 0.00 | 0.00 | 0.00 | 33 | 1015.6 |
| 20260906183115 | 93 | 216 | 8.7 | 12.2 | 0.00 | 0.00 | 0.00 | 34 | 1015.7 |
| 20260906182610 | 92 | 168 | 5.2 | 7.8 | 0.00 | 0.00 | 0.00 | 33 | 1015.6 |
| 20260906182107 | 92 | 217 | 7.8 | 13.0 | 0.00 | 0.00 | 0.00 | 35 | 1015.7 |
| 20260906181607 | 92 | 188 | 4.3 | 14.8 | 0.00 | 0.00 | 0.00 | 35 | 1015.7 |
| 20260906181103 | 92 | 210 | 10.4 | 12.2 | 0.00 | 0.00 | 0.00 | 35 | 1015.9 |
| 20260906180557 | 91 | 210 | 7.8 | 11.3 | 0.00 | 0.00 | 0.00 | 35 | 1016.0 |
| 20260906180056 | 91 | 200 | 6.1 | 13.0 | 0.00 | 0.00 | 0.00 | 35 | 1015.9 |
| 20260906175555 | 92 | 177 | 2.6 | 9.6 | 0.00 | 0.00 | 0.00 | 35 | 1015.9 |
| 20260906175051 | 92 | 176 | 8.7 | 13.0 | 0.00 | 0.00 | 0.00 | 35 | 1015.9 |
| 20260906174548 | 91 | 228 | 7.8 | 9.6 | 0.00 | 0.00 | 0.00 | 36 | 1016.4 |
| 20260906174044 | 91 | 156 | 7.0 | 12.2 | 0.00 | 0.00 | 0.00 | 36 | 1016.2 |
| 20260906173538 | 91 | 204 | 7.0 | 10.4 | 0.00 | 0.00 | 0.00 | 36 | 1016.2 |
| 20260906173035 | 91 | 154 | 5.2 | 7.8 | 0.00 | 0.00 | 0.00 | 37 | 1016.2 |
| 20260906172529 | 91 | 236 | 2.6 | 11.3 | 0.00 | 0.00 | 0.00 | 37 | 1016.5 |
| 20260906172024 | 92 | 193 | 6.1 | 9.6 | 0.00 | 0.00 | 0.00 | 36 | 1016.2 |
| 20260906171519 | 91 | 223 | 5.2 | 11.3 | 0.00 | 0.00 | 0.00 | 37 | 1016.4 |
| 20260906171014 | 91 | 210 | 6.1 | 11.3 | 0.00 | 0.00 | 0.00 | 37 | 1016.4 |
| 20260906170510 | 91 | 166 | 3.5 | 12.2 | 0.00 | 0.00 | 0.00 | 39 | 1016.5 |
| 20260906170009 | 90 | 164 | 4.3 | 9.6 | 0.00 | 0.00 | 0.00 | 39 | 1016.6 |
| 20260906165506 | 90 | 179 | 4.3 | 8.7 | 0.00 | 0.00 | 0.00 | 39 | 1016.5 |
| 20260906165001 | 90 | 191 | 6.1 | 9.6 | 0.00 | 0.00 | 0.00 | 39 | 1016.5 |
| 20260906164500 | 90 | 181 | 2.6 | 11.3 | 0.00 | 0.00 | 0.00 | 41 | 1016.5 |
| 20260906163957 | 89 | 176 | 3.5 | 9.6 | 0.00 | 0.00 | 0.00 | 42 | 1016.7 |
| 20260906163452 | 89 | 187 | 2.6 | 7.8 | 0.00 | 0.00 | 0.00 | 42 | 1016.6 |
| 20260906162950 | 89 | 217 | 9.6 | 14.8 | 0.00 | 0.00 | 0.00 | 41 | 1016.5 |
| 20260906162449 | 89 | 178 | 9.6 | 12.2 | 0.00 | 0.00 | 0.00 | 42 | 1016.7 |
| 20260906161943 | 88 | 201 | 9.6 | 14.8 | 0.00 | 0.00 | 0.00 | 42 | 1016.7 |
| 20260906161438 | 89 | 207 | 7.0 | 13.0 | 0.00 | 0.00 | 0.00 | 43 | 1016.6 |
| 20260906160937 | 88 | 153 | 8.7 | 9.6 | 0.00 | 0.00 | 0.00 | 45 | 1016.6 |
| 20260906160430 | 87 | 220 | 11.3 | 13.0 | 0.00 | 0.00 | 0.00 | 45 | 1016.6 |
| 20260906155929 | 87 | 192 | 10.4 | 12.2 | 0.00 | 0.00 | 0.00 | 45 | 1016.7 |
| 20260906155422 | 87 | 233 | 7.0 | 12.2 | 0.00 | 0.00 | 0.00 | 46 | 1016.5 |
| 20260906154919 | 87 | 221 | 6.1 | 11.3 | 0.00 | 0.00 | 0.00 | 46 | 1016.2 |
| 20260906154413 | 87 | 208 | 9.6 | 13.0 | 0.00 | 0.00 | 0.00 | 46 | 1016.1 |
| 20260906153912 | 86 | 210 | 2.6 | 13.0 | 0.00 | 0.00 | 0.00 | 47 | 1016.1 |
| 20260906153410 | 86 | 213 | 7.8 | 13.9 | 0.00 | 0.00 | 0.00 | 47 | 1016.0 |
| 20260906152906 | 86 | 221 | 11.3 | 13.0 | 0.00 | 0.00 | 0.00 | 47 | 1016.4 |
| 20260906152401 | 85 | 192 | 7.8 | 12.2 | 0.00 | 0.00 | 0.00 | 48 | 1016.4 |
| 20260906151900 | 85 | 215 | 7.8 | 12.2 | 0.00 | 0.00 | 0.00 | 49 | 1016.4 |
| 20260906151356 | 84 | 228 | 8.7 | 12.2 | 0.00 | 0.00 | 0.00 | 49 | 1016.5 |
| 20260906150851 | 84 | 211 | 10.4 | 13.9 | 0.00 | 0.00 | 0.00 | 50 | 1016.5 |
| 20260906150347 | 83 | 219 | 8.7 | 13.0 | 0.00 | 0.00 | 0.00 | 51 | 1016.4 |
| 20260906145846 | 83 | 220 | 5.2 | 11.3 | 0.00 | 0.00 | 0.00 | 51 | 1016.1 |
| 20260906145345 | 83 | 208 | 7.0 | 11.3 | 0.00 | 0.00 | 0.00 | 51 | 1016.4 |
| 20260906144840 | 83 | 192 | 4.3 | 11.3 | 0.00 | 0.00 | 0.00 | 51 | 1016.1 |
| 20260906144335 | 83 | 224 | 7.8 | 12.2 | 0.00 | 0.00 | 0.00 | 51 | 1016.2 |
| 20260906143834 | 82 | 214 | 6.1 | 11.3 | 0.00 | 0.00 | 0.00 | 51 | 1016.1 |
| 20260906143325 | 82 | 210 | 7.8 | 12.2 | 0.00 | 0.00 | 0.00 | 51 | 1016.4 |
| 20260906142821 | 81 | 220 | 6.1 | 11.3 | 0.00 | 0.00 | 0.00 | 52 | 1016.1 |
| 20260906142321 | 81 | 217 | 7.0 | 10.4 | 0.00 | 0.00 | 0.00 | 51 | 1016.5 |
| 20260906141815 | 81 | 217 | 7.0 | 10.4 | 0.00 | 0.00 | 0.00 | 52 | 1016.1 |
| 20260906141310 | 80 | 230 | 7.0 | 9.6 | 0.00 | 0.00 | 0.00 | 53 | 1016.2 |
| 20260906140808 | 79 | 227 | 7.0 | 9.6 | 0.00 | 0.00 | 0.00 | 54 | 1015.9 |
| 20260906140304 | 79 | 232 | 3.5 | 9.6 | 0.00 | 0.00 | 0.00 | 54 | 1016.0 |
| 20260906135801 | 79 | 238 | 7.8 | 9.6 | 0.00 | 0.00 | 0.00 | 54 | 1015.8 |
| 20260906135256 | 78 | 193 | 4.3 | 6.1 | 0.00 | 0.00 | 0.00 | 54 | 1016.0 |
| 20260906134752 | 78 | 192 | 2.6 | 6.1 | 0.00 | 0.00 | 0.00 | 55 | 1016.1 |
| 20260906134247 | 78 | 233 | 3.5 | 7.0 | 0.00 | 0.00 | 0.00 | 55 | 1015.7 |
| 20260906133742 | 77 | 243 | 5.2 | 6.1 | 0.00 | 0.00 | 0.00 | 55 | 1015.9 |
| 20260906133238 | 77 | 226 | 5.2 | 7.0 | 0.00 | 0.00 | 0.00 | 56 | 1015.6 |
| 20260906132733 | 76 | 197 | 4.3 | 7.0 | 0.00 | 0.00 | 0.00 | 56 | 1015.7 |
| 20260906132228 | 76 | 214 | 4.3 | 7.0 | 0.00 | 0.00 | 0.00 | 56 | 1015.5 |
| 20260906131724 | 76 | 221 | 5.2 | 8.7 | 0.00 | 0.00 | 0.00 | 57 | 1015.6 |
| 20260906131219 | 76 | 210 | 2.6 | 9.6 | 0.00 | 0.00 | 0.00 | 57 | 1015.5 |
| 20260906130714 | 76 | 243 | 3.5 | 8.7 | 0.00 | 0.00 | 0.00 | 57 | 1015.5 |
| 20260906130209 | 76 | 210 | 1.7 | 8.7 | 0.00 | 0.00 | 0.00 | 57 | 1015.5 |
| 20260906125707 | 75 | 219 | 4.3 | 8.7 | 0.00 | 0.00 | 0.00 | 57 | 1015.5 |
| 20260906125206 | 75 | 215 | 4.3 | 9.6 | 0.00 | 0.00 | 0.00 | 58 | 1015.2 |
| 20260906124701 | 75 | 211 | 6.1 | 8.7 | 0.00 | 0.00 | 0.00 | 58 | 1015.5 |
| 20260906124157 | 75 | 189 | 5.2 | 8.7 | 0.00 | 0.00 | 0.00 | 58 | 1015.4 |
| 20260906123655 | 75 | 186 | 6.1 | 7.0 | 0.00 | 0.00 | 0.00 | 59 | 1014.9 |
| 20260906123151 | 74 | 202 | 2.6 | 7.0 | 0.00 | 0.00 | 0.00 | 59 | 1015.0 |
| 20260906122650 | 74 | 158 | 2.6 | 5.2 | 0.00 | 0.00 | 0.00 | 59 | 1015.2 |
| 20260906122146 | 74 | 192 | 1.7 | 4.3 | 0.00 | 0.00 | 0.00 | 59 | 1015.1 |
| 20260906121642 | 74 | 204 | 0.9 | 2.6 | 0.00 | 0.00 | 0.00 | 59 | 1015.5 |
| 20260906121138 | 74 | 155 | 1.7 | 2.6 | 0.00 | 0.00 | 0.00 | 59 | 1015.4 |
| 20260906120633 | 74 | 130 | 0.9 | 1.7 | 0.00 | 0.00 | 0.00 | 58 | 1015.2 |
| 20260906120130 | 75 | 202 | 0.9 | 4.3 | 0.00 | 0.00 | 0.00 | 58 | 1015.2 |
| 20260906115625 | 75 | 204 | 2.6 | 8.7 | 0.00 | 0.00 | 0.00 | 58 | 1015.1 |
| 20260906115121 | 75 | 163 | 2.6 | 4.3 | 0.00 | 0.00 | 0.00 | 57 | 1015.0 |
| 20260906114619 | 75 | 258 | 3.5 | 6.1 | 0.00 | 0.00 | 0.00 | 58 | 1015.4 |
| 20260906114114 | 75 | 210 | 3.5 | 4.3 | 0.00 | 0.00 | 0.00 | 57 | 1015.0 |
| 20260906113609 | 75 | 187 | 1.7 | 4.3 | 0.00 | 0.00 | 0.00 | 57 | 1015.1 |
| 20260906113104 | 75 | 182 | 0.9 | 6.1 | 0.00 | 0.00 | 0.00 | 57 | 1015.2 |
| 20260906112604 | 75 | 230 | 3.5 | 6.1 | 0.00 | 0.00 | 0.00 | 57 | 1015.1 |
| 20260906112100 | 75 | 184 | 2.6 | 6.1 | 0.00 | 0.00 | 0.00 | 56 | 1015.0 |
| 20260906111559 | 75 | 210 | 1.7 | 6.1 | 0.00 | 0.00 | 0.00 | 56 | 1015.1 |
| 20260906111055 | 76 | 169 | 2.6 | 6.1 | 0.00 | 0.00 | 0.00 | 56 | 1015.0 |
| 20260906110554 | 75 | 222 | 3.5 | 7.0 | 0.00 | 0.00 | 0.00 | 56 | 1014.8 |
| 20260906110054 | 75 | 217 | 3.5 | 5.2 | 0.00 | 0.00 | 0.00 | 56 | 1014.9 |
| 20260906105549 | 75 | 200 | 2.6 | 5.2 | 0.00 | 0.00 | 0.00 | 56 | 1014.7 |
| 20260906105045 | 75 | 223 | 3.5 | 6.1 | 0.00 | 0.00 | 0.00 | 56 | 1015.0 |
| 20260906104543 | 76 | 229 | 3.5 | 5.2 | 0.00 | 0.00 | 0.00 | 56 | 1014.7 |
| 20260906104038 | 76 | 228 | 2.6 | 6.1 | 0.00 | 0.00 | 0.00 | 56 | 1014.8 |
| 20260906103536 | 76 | 211 | 0.0 | 5.2 | 0.00 | 0.00 | 0.00 | 56 | 1014.8 |
| 20260906103032 | 76 | 191 | 0.9 | 4.3 | 0.00 | 0.00 | 0.00 | 56 | 1014.9 |
| 20260906102532 | 76 | 177 | 3.5 | 5.2 | 0.00 | 0.00 | 0.00 | 56 | 1014.8 |
| 20260906102027 | 75 | 201 | 1.7 | 4.3 | 0.00 | 0.00 | 0.00 | 56 | 1014.9 |
| 20260906101521 | 75 | 176 | 1.7 | 4.3 | 0.00 | 0.00 | 0.00 | 56 | 1014.7 |
| 20260906101016 | 75 | 250 | 1.7 | 4.3 | 0.00 | 0.00 | 0.00 | 56 | 1014.6 |
| 20260906100512 | 76 | 209 | 4.3 | 4.3 | 0.00 | 0.00 | 0.00 | 55 | 1014.5 |
| 20260906100007 | 76 | 234 | 5.2 | 5.2 | 0.00 | 0.00 | 0.00 | 55 | 1014.6 |
| 20260906095501 | 76 | 211 | 3.5 | 4.3 | 0.00 | 0.00 | 0.00 | 55 | 1014.3 |
| 20260906094956 | 76 | 214 | 2.6 | 5.2 | 0.00 | 0.00 | 0.00 | 54 | 1014.6 |
| 20260906094455 | 76 | 195 | 3.5 | 4.3 | 0.00 | 0.00 | 0.00 | 54 | 1014.7 |
| 20260906093952 | 76 | 249 | 1.7 | 4.3 | 0.00 | 0.00 | 0.00 | 54 | 1014.5 |
| 20260906093448 | 77 | 249 | 4.3 | 5.2 | 0.00 | 0.00 | 0.00 | 53 | 1014.6 |
| 20260906092947 | 77 | 183 | 4.3 | 4.3 | 0.00 | 0.00 | 0.00 | 53 | 1014.7 |
| 20260906092442 | 77 | 196 | 2.6 | 4.3 | 0.00 | 0.00 | 0.00 | 52 | 1014.9 |
| 20260906091937 | 77 | 197 | 1.7 | 6.1 | 0.00 | 0.00 | 0.00 | 52 | 1014.3 |
| 20260906091433 | 77 | 220 | 3.5 | 5.2 | 0.00 | 0.00 | 0.00 | 52 | 1014.7 |
| 20260906090929 | 78 | 230 | 2.6 | 5.2 | 0.00 | 0.00 | 0.00 | 52 | 1014.6 |
| 20260906090424 | 78 | 240 | 4.3 | 6.1 | 0.00 | 0.00 | 0.00 | 52 | 1014.6 |
| 20260906085924 | 78 | 236 | 4.3 | 6.1 | 0.00 | 0.00 | 0.00 | 51 | 1014.6 |
| 20260906085418 | 78 | 219 | 4.3 | 6.1 | 0.00 | 0.00 | 0.00 | 51 | 1014.5 |
| 20260906084917 | 78 | 231 | 4.3 | 7.8 | 0.00 | 0.00 | 0.00 | 50 | 1014.5 |
| 20260906084412 | 79 | 207 | 2.6 | 7.8 | 0.00 | 0.00 | 0.00 | 50 | 1014.6 |
| 20260906083911 | 79 | 220 | 3.5 | 7.8 | 0.00 | 0.00 | 0.00 | 50 | 1014.7 |
| 20260906083407 | 79 | 212 | 5.2 | 8.7 | 0.00 | 0.00 | 0.00 | 49 | 1014.7 |
| 20260906082906 | 79 | 206 | 3.5 | 7.8 | 0.00 | 0.00 | 0.00 | 49 | 1014.5 |
| 20260906082401 | 80 | 220 | 4.3 | 7.8 | 0.00 | 0.00 | 0.00 | 49 | 1014.6 |
| 20260906081857 | 80 | 201 | 4.3 | 10.4 | 0.00 | 0.00 | 0.00 | 48 | 1014.5 |
| 20260906081353 | 80 | 207 | 4.3 | 7.8 | 0.00 | 0.00 | 0.00 | 48 | 1014.5 |
| 20260906080849 | 80 | 200 | 1.7 | 7.8 | 0.00 | 0.00 | 0.00 | 49 | 1014.5 |
| 20260906080345 | 80 | 215 | 2.6 | 7.8 | 0.00 | 0.00 | 0.00 | 48 | 1014.3 |
| 20260906075844 | 80 | 198 | 6.1 | 8.7 | 0.00 | 0.00 | 0.00 | 48 | 1014.6 |
| 20260906075339 | 80 | 169 | 3.5 | 7.0 | 0.00 | 0.00 | 0.00 | 48 | 1014.6 |
| 20260906074834 | 80 | 153 | 4.3 | 7.0 | 0.00 | 0.00 | 0.00 | 48 | 1014.7 |
| 20260906074334 | 80 | 167 | 2.6 | 7.8 | 0.00 | 0.00 | 0.00 | 48 | 1014.3 |
| 20260906073833 | 80 | 177 | 0.9 | 6.1 | 0.00 | 0.00 | 0.00 | 48 | 1014.5 |
| 20260906073328 | 80 | 214 | 1.7 | 5.2 | 0.00 | 0.00 | 0.00 | 48 | 1014.5 |
| 20260906072825 | 80 | 194 | 3.5 | 7.0 | 0.00 | 0.00 | 0.00 | 47 | 1014.7 |
| 20260906072320 | 80 | 184 | 3.5 | 9.6 | 0.00 | 0.00 | 0.00 | 47 | 1014.5 |
| 20260906071816 | 80 | 195 | 3.5 | 6.1 | 0.00 | 0.00 | 0.00 | 48 | 1014.7 |
| 20260906071316 | 80 | 202 | 3.5 | 6.1 | 0.00 | 0.00 | 0.00 | 48 | 1014.7 |
| 20260906070812 | 80 | 180 | 3.5 | 4.3 | 0.00 | 0.00 | 0.00 | 48 | 1014.8 |
| 20260906070308 | 77 | 177 | 4.3 | 4.3 | 0.00 | 0.00 | 0.00 | 52 | 1014.8 |
| 20260906065802 | 77 | 121 | 1.7 | 2.6 | 0.00 | 0.00 | 0.00 | 53 | 1014.7 |
| 20260906065257 | 77 | 127 | 2.6 | 3.5 | 0.00 | 0.00 | 0.00 | 53 | 1014.7 |
| 20260906064753 | 78 | 126 | 2.6 | 3.5 | 0.00 | 0.00 | 0.00 | 52 | 1014.6 |
| 20260906064249 | 80 | 107 | 1.7 | 2.6 | 0.00 | 0.00 | 0.00 | 49 | 1014.8 |
| 20260906063743 | 80 | 160 | 3.5 | 4.3 | 0.00 | 0.00 | 0.00 | 48 | 1014.8 |
| 20260906063239 | 80 | 180 | 2.6 | 4.3 | 0.00 | 0.00 | 0.00 | 48 | 1014.9 |
| 20260906062734 | 80 | 180 | 1.7 | 4.3 | 0.00 | 0.00 | 0.00 | 49 | 1014.8 |
| 20260906062233 | 79 | 165 | 2.6 | 4.3 | 0.00 | 0.00 | 0.00 | 49 | 1014.7 |
| 20260906061729 | 80 | 178 | 1.7 | 3.5 | 0.00 | 0.00 | 0.00 | 48 | 1014.8 |
| 20260906061225 | 80 | 164 | 2.6 | 3.5 | 0.00 | 0.00 | 0.00 | 48 | 1014.8 |
| 20260906060721 | 81 | 171 | 2.6 | 4.3 | 0.00 | 0.00 | 0.00 | 47 | 1014.8 |
| 20260906060218 | 81 | 180 | 3.5 | 7.0 | 0.00 | 0.00 | 0.00 | 46 | 1014.9 |
| 20260906055713 | 81 | 166 | 3.5 | 7.8 | 0.00 | 0.00 | 0.00 | 46 | 1015.0 |
| 20260906055209 | 81 | 174 | 3.5 | 7.8 | 0.00 | 0.00 | 0.00 | 46 | 1014.7 |
| 20260906054704 | 81 | 165 | 3.5 | 6.1 | 0.00 | 0.00 | 0.00 | 46 | 1014.9 |
| 20260906054158 | 81 | 160 | 3.5 | 7.8 | 0.00 | 0.00 | 0.00 | 46 | 1014.8 |
| 20260906053655 | 80 | 180 | 4.3 | 6.1 | 0.00 | 0.00 | 0.00 | 47 | 1014.7 |
| 20260906053150 | 80 | 142 | 2.6 | 6.1 | 0.00 | 0.00 | 0.00 | 48 | 1014.7 |
| 20260906052645 | 80 | 130 | 2.6 | 5.2 | 0.00 | 0.00 | 0.00 | 48 | 1014.7 |
| 20260906052142 | 80 | 165 | 4.3 | 8.7 | 0.00 | 0.00 | 0.00 | 47 | 1014.7 |
| 20260906051638 | 79 | 163 | 1.7 | 3.5 | 0.00 | 0.00 | 0.00 | 50 | 1014.5 |
| 20260906051137 | 79 | 153 | 2.6 | 3.5 | 0.00 | 0.00 | 0.00 | 50 | 1014.8 |
| 20260906050633 | 79 | 184 | 2.6 | 4.3 | 0.00 | 0.00 | 0.00 | 50 | 1014.7 |
| 20260906050128 | 80 | 139 | 2.6 | 7.0 | 0.00 | 0.00 | 0.00 | 48 | 1014.7 |
| 20260906045627 | 80 | 124 | 3.5 | 6.1 | 0.00 | 0.00 | 0.00 | 48 | 1014.9 |
| 20260906045122 | 80 | 150 | 4.3 | 4.3 | 0.00 | 0.00 | 0.00 | 48 | 1014.9 |
| 20260906044618 | 81 | 162 | 1.7 | 6.1 | 0.00 | 0.00 | 0.00 | 47 | 1014.8 |
| 20260906044113 | 82 | 132 | 7.0 | 7.8 | 0.00 | 0.00 | 0.00 | 46 | 1014.8 |
| 20260906043609 | 82 | 142 | 6.1 | 7.8 | 0.00 | 0.00 | 0.00 | 46 | 1014.7 |
| 20260906043104 | 82 | 144 | 4.3 | 7.8 | 0.00 | 0.00 | 0.00 | 45 | 1014.8 |
| 20260906042603 | 82 | 140 | 5.2 | 7.8 | 0.00 | 0.00 | 0.00 | 45 | 1014.7 |
| 20260906042052 | 83 | 136 | 5.2 | 10.4 | 0.00 | 0.00 | 0.00 | 44 | 1014.7 |
| 20260906041548 | 83 | 137 | 4.3 | 9.6 | 0.00 | 0.00 | 0.00 | 43 | 1014.8 |
| 20260906041043 | 84 | 146 | 7.0 | 9.6 | 0.00 | 0.00 | 0.00 | 43 | 1014.7 |
| 20260906040538 | 84 | 147 | 4.3 | 8.7 | 0.00 | 0.00 | 0.00 | 43 | 1014.7 |
| 20260906040028 | 84 | 143 | 4.3 | 8.7 | 0.00 | 0.00 | 0.00 | 42 | 1014.8 |
| 20260906035523 | 84 | 143 | 5.2 | 8.7 | 0.00 | 0.00 | 0.00 | 42 | 1014.7 |
| 20260906035019 | 84 | 143 | 6.1 | 9.6 | 0.00 | 0.00 | 0.00 | 42 | 1015.0 |
| 20260906034519 | 84 | 186 | 6.1 | 7.8 | 0.00 | 0.00 | 0.00 | 42 | 1014.8 |
| 20260906034014 | 84 | 159 | 4.3 | 7.8 | 0.00 | 0.00 | 0.00 | 42 | 1015.0 |
| 20260906033508 | 84 | 151 | 6.1 | 8.7 | 0.00 | 0.00 | 0.00 | 42 | 1014.7 |
| 20260906033004 | 84 | 166 | 5.2 | 8.7 | 0.00 | 0.00 | 0.00 | 42 | 1014.7 |
| 20260906032500 | 84 | 138 | 7.8 | 11.3 | 0.00 | 0.00 | 0.00 | 41 | 1014.5 |
| 20260906031954 | 84 | 141 | 6.1 | 9.6 | 0.00 | 0.00 | 0.00 | 41 | 1014.6 |
| 20260906031450 | 84 | 140 | 6.1 | 9.6 | 0.00 | 0.00 | 0.00 | 41 | 1014.5 |
| 20260906030946 | 85 | 156 | 3.5 | 8.7 | 0.00 | 0.00 | 0.00 | 40 | 1014.3 |
| 20260906030440 | 85 | 150 | 4.3 | 7.8 | 0.00 | 0.00 | 0.00 | 40 | 1014.3 |
| 20260906025940 | 85 | 141 | 7.0 | 10.4 | 0.00 | 0.00 | 0.00 | 40 | 1013.9 |
| 20260906025434 | 85 | 148 | 6.1 | 8.7 | 0.00 | 0.00 | 0.00 | 40 | 1013.8 |
| 20260906024933 | 85 | 157 | 5.2 | 7.0 | 0.00 | 0.00 | 0.00 | 40 | 1013.7 |
| 20260906024432 | 85 | 152 | 4.3 | 10.4 | 0.00 | 0.00 | 0.00 | 39 | 1013.7 |
| 20260906023927 | 85 | 138 | 5.2 | 7.8 | 0.00 | 0.00 | 0.00 | 39 | 1013.8 |
| 20260906023424 | 86 | 141 | 5.2 | 9.6 | 0.00 | 0.00 | 0.00 | 39 | 1013.6 |
| 20260906022924 | 86 | 147 | 4.3 | 7.8 | 0.00 | 0.00 | 0.00 | 39 | 1013.6 |
| 20260906022419 | 85 | 149 | 3.5 | 6.1 | 0.00 | 0.00 | 0.00 | 40 | 1013.5 |
| 20260906021909 | 86 | 154 | 2.6 | 6.1 | 0.00 | 0.00 | 0.00 | 40 | 1013.8 |
| 20260906021408 | 86 | 159 | 2.6 | 6.1 | 0.00 | 0.00 | 0.00 | 40 | 1013.6 |
| 20260906020902 | 86 | 148 | 6.1 | 7.0 | 0.00 | 0.00 | 0.00 | 40 | 1013.5 |
| 20260906020357 | 86 | 151 | 3.5 | 7.0 | 0.00 | 0.00 | 0.00 | 40 | 1013.6 |
| 20260906015852 | 86 | 140 | 5.2 | 7.8 | 0.00 | 0.00 | 0.00 | 40 | 1013.5 |
| 20260906015351 | 86 | 130 | 6.1 | 8.7 | 0.00 | 0.00 | 0.00 | 39 | 1013.2 |
| 20260906014850 | 87 | 135 | 7.0 | 8.7 | 0.00 | 0.00 | 0.00 | 39 | 1013.1 |
| 20260906014345 | 87 | 146 | 6.1 | 8.7 | 0.00 | 0.00 | 0.00 | 39 | 1012.9 |
| 20260906013841 | 87 | 146 | 6.1 | 9.6 | 0.00 | 0.00 | 0.00 | 39 | 1012.8 |
| 20260906013337 | 87 | 167 | 2.6 | 8.7 | 0.00 | 0.00 | 0.00 | 39 | 1012.9 |
| 20260906012832 | 87 | 135 | 4.3 | 9.6 | 0.00 | 0.00 | 0.00 | 39 | 1012.7 |
| 20260906012327 | 88 | 155 | 5.2 | 7.8 | 0.00 | 0.00 | 0.00 | 38 | 1012.3 |
| 20260906011827 | 88 | 139 | 6.1 | 11.3 | 0.00 | 0.00 | 0.00 | 38 | 1012.6 |
| 20260906011322 | 89 | 129 | 7.8 | 13.0 | 0.00 | 0.00 | 0.00 | 38 | 1012.7 |
| 20260906010818 | 89 | 135 | 7.8 | 12.2 | 0.00 | 0.00 | 0.00 | 37 | 1012.7 |
| 20260906010314 | 89 | 132 | 8.7 | 13.9 | 0.00 | 0.00 | 0.00 | 37 | 1012.5 |
| 20260906005809 | 90 | 145 | 6.1 | 11.3 | 0.00 | 0.00 | 0.00 | 36 | 1012.6 |
| 20260906005308 | 90 | 142 | 7.0 | 9.6 | 0.00 | 0.00 | 0.00 | 36 | 1012.6 |
| 20260906004806 | 90 | 143 | 7.0 | 8.7 | 0.00 | 0.00 | 0.00 | 36 | 1012.9 |
| 20260906004301 | 91 | 134 | 9.6 | 12.2 | 0.00 | 0.00 | 0.00 | 35 | 1012.5 |
| 20260906003756 | 91 | 138 | 11.3 | 12.2 | 0.00 | 0.00 | 0.00 | 34 | 1012.6 |
| 20260906003252 | 91 | 133 | 6.1 | 10.4 | 0.00 | 0.00 | 0.00 | 35 | 1012.5 |
| 20260906002746 | 91 | 137 | 7.8 | 9.6 | 0.00 | 0.00 | 0.00 | 34 | 1012.5 |
| 20260906002241 | 92 | 133 | 7.8 | 11.3 | 0.00 | 0.00 | 0.00 | 34 | 1012.5 |
| 20260906001736 | 92 | 132 | 7.8 | 11.3 | 0.00 | 0.00 | 0.00 | 34 | 1012.5 |
| 20260906001231 | 92 | 139 | 8.7 | 13.9 | 0.00 | 0.00 | 0.00 | 33 | 1012.2 |
| 20260906000727 | 92 | 133 | 9.6 | 11.3 | 0.00 | 0.00 | 0.00 | 33 | 1012.5 |
| 20260906000227 | 92 | 127 | 10.4 | 13.0 | 0.00 | 0.00 | 0.00 | 33 | 1012.1 |
| 20260905235721 | 92 | 132 | 10.4 | 13.0 | 0.00 | 0.00 | 0.00 | 33 | 1011.9 |
| 20260905235216 | 93 | 130 | 10.4 | 16.5 | 0.00 | 0.00 | 0.00 | 33 | 1012.0 |
| 20260905234711 | 93 | 137 | 10.4 | 14.8 | 0.00 | 0.00 | 0.00 | 33 | 1011.8 |
| 20260905234207 | 93 | 133 | 13.0 | 15.6 | 0.00 | 0.00 | 0.00 | 33 | 1011.9 |
| 20260905233702 | 93 | 139 | 7.8 | 18.2 | 0.00 | 0.00 | 0.00 | 33 | 1011.7 |
| 20260905233201 | 94 | 154 | 7.0 | 14.8 | 0.00 | 0.00 | 0.00 | 32 | 1011.7 |
| 20260905232656 | 94 | 136 | 6.1 | 7.8 | 0.00 | 0.00 | 0.00 | 32 | 1011.5 |
| 20260905232152 | 95 | 152 | 4.3 | 11.3 | 0.00 | 0.00 | 0.00 | 32 | 1011.3 |
| 20260905231648 | 95 | 133 | 6.1 | 11.3 | 0.00 | 0.00 | 0.00 | 29 | 1011.3 |
| 20260905231143 | 96 | 166 | 5.2 | 9.6 | 0.00 | 0.00 | 0.00 | 29 | 1011.3 |
| 20260905230639 | 96 | 214 | 4.3 | 5.2 | 0.00 | 0.00 | 0.00 | 28 | 1011.3 |
| 20260905230137 | 96 | 220 | 4.3 | 9.6 | 0.00 | 0.00 | 0.00 | 28 | 1011.7 |
| 20260905225636 | 97 | 232 | 3.5 | 8.7 | 0.00 | 0.00 | 0.00 | 29 | 1011.3 |
| 20260905225131 | 96 | 151 | 4.3 | 9.6 | 0.00 | 0.00 | 0.00 | 29 | 1011.6 |
| 20260905224630 | 97 | 180 | 6.1 | 9.6 | 0.00 | 0.00 | 0.00 | 29 | 1011.7 |
| 20260905224125 | 97 | 141 | 7.8 | 11.3 | 0.00 | 0.00 | 0.00 | 28 | 1011.6 |
| 20260905223622 | 97 | 173 | 2.6 | 7.8 | 0.00 | 0.00 | 0.00 | 28 | 1011.2 |
| 20260905223118 | 97 | 149 | 5.2 | 7.8 | 0.00 | 0.00 | 0.00 | 27 | 1011.7 |
| 20260905222613 | 97 | 158 | 5.2 | 10.4 | 0.00 | 0.00 | 0.00 | 28 | 1011.5 |
| 20260905222108 | 97 | 207 | 9.6 | 13.9 | 0.00 | 0.00 | 0.00 | 28 | 1011.6 |
| 20260905221604 | 98 | 153 | 6.1 | 11.3 | 0.00 | 0.00 | 0.00 | 29 | 1011.2 |
| 20260905221100 | 97 | 199 | 10.4 | 13.0 | 0.00 | 0.00 | 0.00 | 28 | 1011.7 |
| 20260905220555 | 97 | 196 | 7.0 | 10.4 | 0.00 | 0.00 | 0.00 | 28 | 1011.7 |
| 20260905220052 | 97 | 202 | 10.4 | 11.3 | 0.00 | 0.00 | 0.00 | 28 | 1011.6 |
| 20260905215551 | 97 | 193 | 4.3 | 7.0 | 0.00 | 0.00 | 0.00 | 27 | 1011.7 |
| 20260905215047 | 97 | 204 | 6.1 | 11.3 | 0.00 | 0.00 | 0.00 | 28 | 1011.8 |
| 20260905214542 | 98 | 219 | 9.6 | 12.2 | 0.00 | 0.00 | 0.00 | 28 | 1011.8 |
| 20260905214037 | 97 | 198 | 5.2 | 14.8 | 0.00 | 0.00 | 0.00 | 28 | 1011.8 |
| 20260905213533 | 97 | 160 | 4.3 | 11.3 | 0.00 | 0.00 | 0.00 | 28 | 1012.2 |
| 20260905213028 | 97 | 233 | 7.8 | 13.0 | 0.00 | 0.00 | 0.00 | 29 | 1012.0 |